DateTimeUTC,F1_A11,F1_S11,BsB_S11,BsG_S11,BsR_S11,BbsB_S11,BbsG_S11,BbsR_S11,BaB_A11,BaG_A11,BaR_A11,Tu_S11,T_S11,Uu_S11,U_S11,P_S11,T1_A11
2021-08-02T03:00:00Z,00000200,20000000,,,,,,,0000.00,-000.04,0000.08,18.3,25.4,02.0,01.3,0673.3,31.0
2021-08-02T03:01:00Z,00000200,20000000,,,,,,,0000.10,0000.26,0000.01,18.2,25.4,02.0,01.3,0673.3,31.0
2021-08-02T03:02:00Z,00000200,20000000,,,,,,,0000.35,0000.42,0000.69,18.2,25.4,02.0,01.3,0673.3,31.0
2021-08-02T03:03:00Z,00000200,60000000,,,,,,,0000.25,0000.03,-000.03,18.2,25.4,02.0,01.3,0673.3,31.0
2021-08-02T03:04:00Z,00000200,40000000,0000.36,0000.19,0000.47,0000.50,0000.20,0000.38,0000.03,0000.24,0000.19,18.5,25.3,02.4,01.6,0674.2,31.0
2021-08-02T03:05:00Z,00000200,00000000,0000.19,0000.24,0000.04,0000.32,0000.11,-000.21,-000.17,-000.45,-000.28,18.6,25.3,02.4,01.6,0674.3,31.0
2021-08-02T03:06:00Z,00000200,00000000,0000.49,0000.33,-000.01,0000.18,0000.17,0000.08,0000.32,0000.11,0000.03,18.7,25.2,02.3,01.5,0674.2,31.0
2021-08-02T03:07:00Z,00000200,00000000,-000.43,0000.18,0000.13,-000.20,0000.27,0000.39,-000.40,0000.13,0000.09,18.7,25.2,02.3,01.6,0674.2,31.0
2021-08-02T03:08:00Z,00000200,00000000,0000.18,0000.14,0000.31,0000.24,-000.15,0000.09,0000.09,0000.05,0000.08,18.6,25.2,02.4,01.6,0674.2,31.0
2021-08-02T03:09:00Z,00000200,00000000,0000.50,0000.14,-000.01,0000.30,0000.13,-000.13,0000.11,0000.03,0000.08,18.6,25.2,02.3,01.5,0674.2,31.0
2021-08-02T03:10:00Z,00000200,00000000,0000.53,-000.07,0000.10,-000.22,-000.22,0000.15,-000.25,-000.17,-000.34,18.6,25.1,02.2,01.5,0674.1,31.0
2021-08-02T03:11:00Z,00000200,00000000,0000.27,0000.09,-000.04,0000.19,0000.29,0000.20,0000.16,0000.01,0000.37,18.5,25.1,02.5,01.6,0674.1,31.0
2021-08-02T03:12:00Z,00000200,00000000,0000.15,0000.31,-000.24,0000.13,0000.05,0000.14,-000.23,0000.01,-000.36,18.5,25.1,02.4,01.6,0674.2,31.0
2021-08-02T03:13:00Z,00000200,00000000,0000.69,-000.02,0000.01,0000.53,-000.03,0000.16,-000.23,-000.39,-000.45,18.5,25.1,02.4,01.6,0674.2,31.0
2021-08-02T03:14:00Z,00000200,00000000,0000.76,0000.11,0000.10,0000.27,0000.07,0000.16,0000.19,-000.20,0000.00,18.4,25.1,02.3,01.5,0674.2,31.0
2021-08-02T03:15:00Z,00000200,00000000,0000.35,0000.23,0000.08,0000.60,0000.21,0000.43,-000.16,0000.11,-000.01,18.4,25.0,02.2,01.5,0674.2,31.0
2021-08-02T03:16:00Z,00000200,00000000,0000.30,0000.12,0000.18,0000.35,0000.02,0000.02,0000.30,0000.12,0000.09,18.4,25.0,02.1,01.4,0674.1,31.0
2021-08-02T03:17:00Z,00000200,00000000,-000.35,0000.06,-000.10,0000.46,-000.01,-000.10,0000.12,0000.17,0000.37,18.4,25.0,02.2,01.5,0674.1,31.0
2021-08-02T03:18:00Z,00000200,00000000,0000.33,-000.08,0000.28,-000.54,0000.13,0000.17,-000.21,-000.03,-000.12,18.5,25.1,02.2,01.5,0674.1,31.0
2021-08-02T03:19:00Z,00000200,00000000,0000.56,0000.30,0000.18,-000.35,0000.32,0000.33,0000.23,0000.14,0000.07,18.6,25.1,02.3,01.5,0674.1,31.0
2021-08-02T03:20:00Z,00000200,00000000,0000.65,-000.09,0000.01,0000.40,0000.12,0000.16,0000.12,0000.21,0000.28,18.7,25.2,02.3,01.6,0674.1,31.0
2021-08-02T03:21:00Z,00000200,00000000,-000.47,-000.04,0000.15,-000.41,-000.25,0000.17,-000.01,0000.32,-000.03,18.7,25.2,02.3,01.6,0674.1,31.0
2021-08-02T03:22:00Z,00000200,00000000,-000.17,-000.18,0000.07,0000.37,0000.28,-000.05,-000.20,-000.54,-000.12,18.8,25.2,02.2,01.5,0674.1,31.0
2021-08-02T03:23:00Z,00000200,00000000,0000.35,-000.04,0000.16,-000.23,-000.23,0000.37,0000.09,0000.20,0000.04,18.8,25.2,02.2,01.5,0674.1,31.1
2021-08-02T03:24:00Z,00000200,00000000,0000.55,0000.11,0000.22,-000.30,0000.12,0000.32,-000.11,-000.27,-000.15,18.7,25.2,02.1,01.4,0674.1,31.0
2021-08-02T03:25:00Z,00000200,00000000,0000.73,0000.11,-000.09,0000.03,-000.02,-000.02,-000.08,-000.21,-000.31,18.7,25.2,02.1,01.4,0674.1,31.0
2021-08-02T03:26:00Z,00000200,00000000,0000.82,0000.22,-000.01,0000.15,0000.23,0000.18,-000.11,0000.07,-000.03,18.6,25.1,02.0,01.4,0674.1,31.0
2021-08-02T03:27:00Z,00000200,00000000,0000.43,0000.36,0000.32,0000.09,0000.13,-000.03,-000.15,-000.59,-000.12,18.6,25.1,02.0,01.3,0674.1,31.0
2021-08-02T03:28:00Z,00000200,01000000,0000.36,-000.47,0000.32,-000.30,-000.07,0000.15,0000.69,0000.94,0000.47,18.6,25.1,02.0,01.3,0674.0,31.0
2021-08-02T03:29:00Z,00000200,00000000,-000.02,-000.01,0000.32,0000.53,-000.08,0000.49,-000.15,0000.01,0000.49,18.5,25.1,02.1,01.4,0674.0,31.0
2021-08-02T03:30:00Z,00000200,00000000,-000.05,0000.06,-000.20,-000.09,0000.38,0000.08,-000.20,0000.02,-000.28,18.5,25.1,02.2,01.5,0674.0,31.0
2021-08-02T03:31:00Z,00000200,00000000,0000.25,0000.32,0000.31,0000.26,0000.17,0000.22,0000.74,0000.52,0000.22,18.5,25.0,02.2,01.5,0674.0,31.0
2021-08-02T03:32:00Z,00000200,00000000,0000.05,-000.22,0000.21,-000.62,0000.11,0000.27,0000.02,-000.02,0000.32,18.5,25.0,02.4,01.6,0674.0,31.0
2021-08-02T03:33:00Z,00000200,00000000,0000.29,0000.17,0000.16,-000.21,0000.30,0000.31,-000.24,-000.17,-000.18,18.6,25.1,02.2,01.5,0674.0,31.0
2021-08-02T03:34:00Z,00000200,00000000,0000.97,0000.04,0000.26,-000.16,0000.33,0000.58,0000.34,0000.08,-000.17,18.7,25.1,02.1,01.4,0674.0,31.0
2021-08-02T03:35:00Z,00000200,00000000,0000.45,0000.03,0000.03,-000.13,-000.23,0000.01,-000.09,0000.20,0000.05,18.7,25.2,02.2,01.5,0674.0,31.0
2021-08-02T03:36:00Z,00000200,00000000,0000.42,0000.25,0000.27,0000.09,-000.05,-000.05,-000.12,-000.17,0000.33,18.8,25.2,02.1,01.4,0673.9,31.0
2021-08-02T03:37:00Z,00000200,00000000,0001.51,0001.01,0000.45,0000.09,0000.18,0000.31,0001.37,0001.34,0001.08,18.8,25.2,02.3,01.6,0673.8,31.0
2021-08-02T03:38:00Z,00000200,00000000,0002.95,0002.03,0001.23,0000.60,0000.20,0000.19,0000.60,0000.39,0000.19,18.7,25.2,02.7,01.8,0673.9,31.0
2021-08-02T03:39:00Z,00000200,00000000,0003.65,0002.53,0001.28,0000.98,0000.39,0000.52,0000.76,0000.53,0000.69,18.7,25.1,02.8,01.9,0673.9,31.0
2021-08-02T03:40:00Z,00000200,00000000,0003.24,0002.22,0001.36,-000.13,0000.34,0000.42,0000.91,0000.93,0000.81,18.6,25.1,02.8,01.9,0673.9,31.0
2021-08-02T03:41:00Z,00000200,00000000,0003.62,0002.53,0001.51,0000.17,0000.53,0000.32,0000.60,0000.75,0000.30,18.6,25.1,03.0,02.0,0673.9,31.0
2021-08-02T03:42:00Z,00000200,00000000,0004.13,0002.87,0001.73,0000.71,0000.51,0000.52,0000.39,0000.76,0000.10,18.6,25.1,03.0,02.0,0673.9,31.0
2021-08-02T03:43:00Z,00000200,00000000,0004.57,0002.89,0001.85,0000.75,0000.31,0000.46,0001.39,0000.65,0001.04,18.5,25.0,03.0,02.0,0673.8,31.0
2021-08-02T03:44:00Z,00000200,00000000,0003.90,0002.40,0001.50,0000.63,0000.48,0000.43,0000.71,0000.68,0000.41,18.5,25.0,03.0,02.0,0673.8,31.0
2021-08-02T03:45:00Z,00000200,00000000,0003.73,0002.38,0001.74,-000.38,0000.51,0000.49,0000.48,0000.62,0000.67,18.5,25.0,03.1,02.1,0673.7,31.0
2021-08-02T03:46:00Z,00000200,00000000,0002.45,0000.82,0001.26,-000.20,-000.01,0000.67,0000.40,0001.17,0000.49,18.5,25.0,03.3,02.2,0673.7,31.0
2021-08-02T03:47:00Z,00000200,00000000,0002.35,0001.61,0001.33,0000.03,-000.07,0000.59,0001.15,-000.06,0000.71,18.5,25.0,03.4,02.3,0673.7,31.0
2021-08-02T03:48:00Z,00000200,00000000,0002.70,0001.67,0001.15,0000.08,0000.28,0000.72,0000.45,0000.81,0000.16,18.6,25.0,03.6,02.4,0673.7,31.0
2021-08-02T03:49:00Z,00000200,00000000,0002.19,0001.67,0001.13,0000.55,0000.08,0000.67,0000.10,-000.27,-000.46,18.6,25.1,03.2,02.1,0673.7,31.0
2021-08-02T03:50:00Z,00000200,00000000,0002.26,0001.66,0001.01,-000.00,0000.27,0000.49,0000.19,0000.40,0000.45,18.7,25.1,02.9,02.0,0673.7,31.0
2021-08-02T03:51:00Z,00000200,00000000,0002.76,0001.67,0001.16,0000.46,-000.13,0000.31,0000.50,0000.47,0000.45,18.7,25.1,02.9,02.0,0673.6,31.0
2021-08-02T03:52:00Z,00000200,00000000,0003.01,0001.67,0001.37,0000.14,0000.52,0000.38,0000.49,0000.22,0000.23,18.7,25.1,03.0,02.0,0673.6,31.0
2021-08-02T03:53:00Z,00000200,00000000,0002.40,0001.66,0001.26,-000.10,0000.37,0000.35,0000.67,0000.79,0000.34,18.7,25.1,02.9,01.9,0673.6,31.0
2021-08-02T03:54:00Z,00000200,00000000,0002.11,0001.02,0000.53,0000.33,0000.15,0000.28,-000.17,-000.21,-000.23,18.6,25.1,02.9,01.9,0673.6,31.0
2021-08-02T03:55:00Z,00000200,00000000,0000.89,0000.08,0000.42,-000.31,0000.28,0000.28,-000.32,-000.08,-000.21,18.6,25.1,02.8,01.9,0673.6,31.0
2021-08-02T03:56:00Z,00000200,00000000,0000.29,0000.20,0000.27,0000.53,-000.29,0000.09,0000.22,-000.31,-000.16,18.5,25.0,02.6,01.8,0673.6,31.0
2021-08-02T03:57:00Z,00000200,40000000,,,,,,,-000.40,-000.02,0000.17,18.6,25.1,02.8,01.9,0673.7,31.0
2021-08-02T03:58:00Z,00000200,60000000,,,,,,,0000.02,0000.01,-000.24,18.2,25.1,02.6,01.7,0672.6,31.0
2021-08-02T03:59:00Z,00000200,20000000,,,,,,,-000.19,0000.06,-000.17,18.2,25.2,02.3,01.5,0672.6,31.0
